EW8549 Weather Reports


Display with metric or nautical units.
time (UTC)temp
F
wind
direction
speed
MPH
gust
MPH
rain 1hr
in
rain 24hr
in
rain mn
in
humidity
%
barometer
mb
20260510093033 62 148 0.0 0.0 0.00 0.00 0.00 1 1012.0
20260510091532 62 148 0.0 0.0 0.00 0.00 0.00 1 1011.9
20260510090021 62 148 0.0 0.0 0.00 0.00 0.00 1 1011.8
20260510084519 62 148 0.0 0.0 0.00 0.00 0.00 1 1011.7
20260510083012 62 148 0.0 0.0 0.00 0.00 0.00 1 1011.6
20260510081507 62 148 0.0 0.0 0.00 0.00 0.00 1 1011.6
20260510080011 62 148 0.0 0.0 0.00 0.00 0.00 1 1011.3
20260510074559 61 148 0.0 0.0 0.00 0.00 0.00 1 1011.2
20260510073057 60 148 0.0 0.0 0.00 0.00 0.00 1 1011.0
20260510071550 60 148 0.0 0.0 0.00 0.00 0.00 1 1011.1
20260510070045 60 148 0.0 0.0 0.00 0.00 0.00 1 1011.1
20260510064542 60 148 0.0 0.0 0.00 0.00 0.00 1 1011.2
20260510063038 60 148 0.0 0.0 0.00 0.00 0.00 1 1011.1
20260510061535 61 148 0.0 0.0 0.00 0.00 0.00 1 1011.2
20260510060038 61 148 0.0 0.0 0.00 0.00 0.00 1 1011.3
20260510054534 62 148 0.0 0.0 0.00 0.00 0.00 1 1011.4
20260510053020 62 148 0.0 0.0 0.00 0.00 0.00 1 1011.5
20260510051515 62 148 0.0 0.0 0.00 0.00 0.00 1 1011.6
20260510050013 62 148 0.0 0.0 0.00 0.00 0.00 1 1011.5
20260510044506 63 148 0.0 0.0 0.00 0.00 0.00 1 1011.5
20260510043002 63 148 0.0 0.0 0.00 0.00 0.00 1 1011.6
20260510041557 64 148 0.0 0.0 0.00 0.00 0.00 1 1011.7
20260510040053 64 148 0.0 0.0 0.00 0.00 0.00 1 1011.7
20260510034548 64 148 0.0 0.0 0.00 0.00 0.00 1 1011.7
20260510033044 65 148 0.0 0.0 0.00 0.00 0.00 1 1011.8
20260510031540 66 148 0.0 0.0 0.00 0.00 0.00 1 1011.9
20260510030048 66 148 0.0 0.0 0.00 0.00 0.00 1 1011.8
20260510024530 66 148 0.0 0.0 0.00 0.00 0.00 1 1011.7
20260510023027 67 148 0.0 0.0 0.00 0.00 0.00 1 1011.6
20260510021521 67 148 0.0 0.0 0.00 0.00 0.00 1 1011.4
20260510020018 67 148 0.0 0.0 0.00 0.00 0.00 1 1011.1
20260510014513 67 148 0.0 0.0 0.00 0.00 0.00 1 1010.8
20260510013009 69 148 0.0 0.0 0.00 0.00 0.00 1 1010.5
20260510011508 70 148 0.0 0.0 0.00 0.00 0.00 1 1010.2
20260510010104 71 148 0.0 0.0 0.00 0.00 0.00 3 1009.8
20260510004557 74 148 0.0 0.0 0.00 0.00 0.00 25 1009.5
20260510003051 75 161 0.0 0.0 0.00 0.00 0.00 36 1009.3
20260510001547 77 167 0.0 0.0 0.00 0.00 0.00 47 1009.2
20260510000044 78 162 0.0 0.0 0.00 0.00 0.00 52 1009.0
20260509234542 77 184 0.0 0.0 0.00 0.00 0.00 50 1009.0
20260509233037 77 161 0.0 0.0 0.00 0.00 0.00 48 1008.8
20260509231532 76 155 0.0 0.0 0.00 0.00 0.00 45 1009.0
20260509230025 76 208 0.0 0.0 0.00 0.00 0.00 49 1008.8
20260509224520 77 214 0.0 0.0 0.00 0.00 0.00 53 1008.9
20260509223016 77 214 0.0 0.0 0.00 0.00 0.00 56 1008.7
20260509221512 77 144 0.0 0.0 0.00 0.00 0.00 55 1008.7
20260509220020 77 124 0.0 0.0 0.00 0.00 0.00 53 1008.5
20260509214504 77 2 0.0 0.0 0.00 0.00 0.00 59 1008.4
20260509213136 77 337 0.0 0.0 0.00 0.00 0.00 58 1008.3
20260509211555 77 337 0.0 0.0 0.00 0.00 0.00 60 1008.5
20260509204548 77 326 0.0 0.0 0.00 0.00 0.00 60 1008.6
20260509203044 77 269 0.0 0.0 0.00 0.00 0.00 60 1008.8
20260509201539 77 210 0.0 0.0 0.00 0.00 0.00 60 1009.0
20260509200035 78 266 0.0 0.0 0.00 0.00 0.00 60 1009.0
20260509194532 77 233 0.0 0.0 0.00 0.00 0.00 59 1009.1
20260509193027 77 285 0.0 0.0 0.00 0.00 0.00 59 1009.1
20260509191523 77 124 0.0 0.0 0.00 0.00 0.00 54 1009.3
20260509190019 76 287 0.0 0.0 0.00 0.00 0.00 51 1009.4
20260509184513 75 1 0.0 0.0 0.00 0.00 0.00 46 1009.5
20260509183011 75 341 0.0 2.0 0.00 0.00 0.00 47 1009.9
20260509181506 74 158 0.0 0.0 0.00 0.00 0.00 40 1010.1
20260509174555 73 124 0.0 7.0 0.00 0.00 0.00 26 1010.6
20260509173051 72 101 0.0 9.0 0.00 0.00 0.00 19 1010.6
20260509171549 73 139 2.0 8.0 0.00 0.00 0.00 11 1010.8
20260509170048 72 181 0.0 0.0 0.00 0.00 0.00 16 1010.8
20260509164542 71 264 0.0 10.0 0.00 0.00 0.00 2 1010.7
20260509163034 70 146 0.0 0.0 0.00 0.00 0.00 1 1010.7
20260509161533 69 189 0.0 0.0 0.00 0.00 0.00 1 1010.5
20260509160031 68 265 0.0 0.0 0.00 0.00 0.00 1 1010.6
20260509154518 68 245 0.0 0.0 0.00 0.00 0.00 1 1010.9
20260509153014 68 263 0.0 0.0 0.00 0.00 0.00 1 1010.8
20260509151509 68 270 0.0 0.0 0.00 0.00 0.00 1 1010.6
20260509150006 67 241 0.0 0.0 0.00 0.00 0.00 1 1010.6
20260509144502 66 116 0.0 0.0 0.00 0.01 0.00 1 1010.4
20260509143057 65 149 0.0 4.0 0.00 0.01 0.00 1 1010.4
20260509141553 64 221 0.0 0.0 0.00 0.01 0.00 1 1010.4
20260509140059 64 211 0.0 0.0 0.00 0.01 0.00 1 1010.6
20260509134545 63 243 0.0 1.0 0.00 0.01 0.00 1 1010.5
20260509133040 63 174 0.0 0.0 0.00 0.01 0.00 1 1010.3
20260509131539 63 113 0.0 0.0 0.00 0.01 0.00 1 1009.9
20260509130033 62 113 0.0 0.0 0.00 0.01 0.00 1 1009.6
20260509124532 62 113 0.0 0.0 0.00 0.01 0.00 1 1009.5